Wind_Gust
4 2 2 3 4 5 5 7 9 10 5 7 6 8 12 3 7 7 11 7 6 8 6 5 5 8 7 7 11 12 12 6 5 19 13 12 10 19 18 19 19 18 19 15 13 14 16 15 15 16 16 18 17 18 17 20 21 21 22 22 21 21 21 20 21 21 21 20 20 20 21 21 20 20 20 19 17 16 18 19 19 20 21 20 19 19 18 19 20 19 19 19 19 18 18 19 19
3 3 2 3 4 3 6 6 10 2 10 4 17 5 7 5 1 8 14 5 7 11 2 14 17 20 20 15 11 5 10 13 5 6 10 11 16 18 18 20 19 21 16 15 13 14 14 17 17 17 17 19 18 19 20 20 20 21 21 22 21 21 20 20 20 21 20 19 19 19 20 19 19 19 18 17 16 15 15 17 18 18 19 19 18 18 18 18 17 16 16 18 19 17 17 18 18
1 3 5 5 8 7 5 5 6 4 5 5 19 12 5 8 10 11 15 5 9 12 7 11 12 7 5 2 12 7 6 7 12 11 15 14 21 10 15 16 17 17 17 15 16 14 14 17 17 18 18 19 19 19 20 20 20 20 21 21 21 20 20 20 20 20 20 19 19 19 19 19 18 18 18 17 15 14 13 13 15 17 18 17 16 17 19 19 17 18 18 17 18 17 16 16 16
2 3 7 5 6 9 8 7 8 13 8 13 15 9 8 6 9 5 6 3 8 12 11 6 8 6 7 13 11 7 9 7 8 10 23 15 11 15 16 17 15 15 16 16 18 17 16 20 21 17 18 18 19 20 20 20 20 20 20 20 20 20 21 19 20 20 19 18 18 18 17 17 18 18 17 17 15 13 12 12 11 14 16 15 14 17 18 17 17 16 15 14 15 16 15 15 15
3 2 3 7 12 5 7 7 8 8 7 15 12 10 7 7 12 11 11 5 11 10 5 8 12 6 4 10 3 6 5 11 10 6 18 14 16 15 18 16 15 17 19 16 16 17 17 25 22 18 18 19 19 21 21 20 20 20 20 20 20 21 21 20 20 20 19 19 18 18 18 17 18 17 17 16 15 14 14 13 13 13 13 11 10 12 18 17 16 15 14 13 14 15 14 13 13
6 5 4 5 5 7 11 4 3 6 17 8 5 10 8 10 9 13 12 4 6 2 3 3 10 8 10 9 10 10 4 7 13 11 18 15 20 20 18 19 19 16 13 11 14 17 19 22 20 18 17 19 20 20 21 21 21 20 20 20 20 21 21 20 19 20 19 19 18 18 18 18 18 17 17 17 16 15 15 13 12 12 12 11 12 17 19 17 16 15 13 12 13 12 12 12 12
4 8 9 6 5 11 10 5 8 8 21 10 10 9 15 17 19 12 18 9 2 2 5 7 17 14 17 8 13 15 9 9 13 14 14 20 21 19 21 21 21 18 16 13 10 13 21 20 19 17 18 19 19 20 21 20 20 20 19 19 19 21 21 20 18 18 19 18 18 19 18 18 17 17 16 17 16 16 15 13 13 11 14 16 17 18 18 18 16 14 12 11 10 11 11 11 11
3 6 4 7 6 3 3 4 8 11 13 11 4 7 13 14 16 10 12 4 8 6 3 15 11 14 6 8 12 13 17 15 22 25 22 19 20 24 25 21 22 20 18 15 13 7 20 20 17 15 16 18 20 21 20 20 19 19 19 19 19 19 21 19 18 17 16 17 19 18 18 17 17 17 17 17 16 16 15 15 14 15 17 17 17 18 17 17 15 13 12 10 9 10 10 11 11
6 10 2 11 3 5 2 7 12 8 13 8 13 11 17 16 16 14 18 10 4 3 7 2 2 12 6 16 12 12 18 18 20 22 21 20 20 16 18 19 20 17 16 15 13 12 9 18 17 14 15 16 18 20 19 19 17 17 17 18 17 17 17 17 18 17 16 15 17 18 17 16 16 16 16 16 16 15 15 15 14 16 16 16 16 17 17 16 15 13 11 9 10 10 10 10 10
4 5 4 9 8 4 3 13 4 8 6 8 10 19 16 17 14 11 19 11 8 8 4 7 8 19 17 19 10 10 14 15 23 20 18 19 19 19 20 18 16 17 16 17 16 13 9 15 12 13 12 15 16 17 16 16 18 17 16 16 15 15 15 17 16 16 16 16 15 16 16 16 16 15 16 16 16 15 14 14 14 15 15 16 16 15 14 14 13 12 10 9 9 9 9 9 9
5 9 6 8 3 4 6 11 9 9 10 12 16 18 18 20 16 16 10 9 6 11 9 12 19 17 15 9 8 5 12 13 21 21 16 19 21 21 20 17 15 15 19 18 19 21 13 11 16 10 11 13 13 16 16 16 15 15 16 15 15 15 17 16 17 16 16 16 16 16 16 15 16 15 15 15 15 15 13 13 14 14 14 15 15 14 13 13 13 11 10 8 8 7 7 7 8
4 5 5 6 5 9 8 8 7 12 13 9 13 16 7 10 6 6 8 12 7 4 6 3 17 18 16 10 8 9 14 14 14 17 17 18 21 21 20 17 17 17 19 16 15 20 18 11 7 13 12 14 15 16 16 16 15 16 16 16 15 16 17 17 16 16 16 16 16 15 15 15 15 14 14 14 14 14 13 13 13 13 14 14 14 13 13 13 13 11 9 8 7 6 5 6 6
8 3 7 7 6 3 7 5 8 6 10 11 6 21 15 8 4 10 8 10 7 8 5 5 27 8 12 10 10 11 15 15 16 15 16 18 20 21 19 19 18 17 17 18 20 18 14 12 5 8 11 15 15 13 14 16 16 16 16 16 16 16 17 16 16 16 16 16 16 15 15 15 15 15 14 14 14 13 13 12 12 13 13 13 13 13 13 13 12 11 9 8 6 5 4 4 5
8 11 8 6 2 4 5 7 3 6 10 9 6 10 16 7 2 5 11 10 5 6 5 21 16 18 12 13 9 12 14 15 15 14 17 18 19 20 19 19 19 17 16 16 16 19 17 14 10 6 10 9 9 13 13 15 15 16 16 15 15 15 15 15 15 14 15 15 15 15 15 15 15 15 14 13 12 11 11 11 11 12 12 12 13 13 12 12 12 11 9 6 5 3 3 4 5
5 4 5 4 5 2 8 8 6 5 12 6 13 13 18 7 4 5 9 11 8 5 15 8 19 15 19 20 12 14 18 19 17 17 20 19 20 20 17 16 15 15 16 20 19 19 18 15 14 12 11 8 11 9 10 15 17 16 15 15 15 15 14 15 15 13 14 14 15 14 14 16 15 15 15 13 11 9 11 10 8 9 11 12 12 12 12 11 10 10 9 6 4 3 4 5 5
8 7 5 5 8 6 15 5 2 2 15 5 16 10 9 4 5 5 6 6 13 7 7 8 4 6 12 20 22 23 22 21 19 21 23 21 19 19 17 14 13 12 12 15 17 20 21 18 14 11 11 10 8 8 10 11 15 17 16 16 15 14 14 15 15 14 14 14 15 13 12 12 12 12 15 13 12 9 7 5 9 9 11 12 11 11 11 10 10 9 7 6 4 3 5 6 6
3 6 4 5 11 6 11 6 8 8 9 11 10 11 12 10 7 5 5 9 18 4 9 12 9 8 25 11 23 26 23 21 20 22 21 20 20 17 15 13 13 11 13 13 13 16 20 21 19 17 13 11 10 9 8 9 13 17 12 14 14 15 15 16 15 15 13 12 12 12 9 8 6 7 9 6 12 7 6 7 10 11 10 11 10 10 10 9 9 8 7 7 5 4 5 6 6
5 7 8 8 10 6 10 6 8 5 6 13 12 6 6 7 11 6 5 13 12 11 14 7 19 18 15 19 27 25 24 23 25 24 19 19 19 19 17 15 15 16 11 11 11 12 15 17 20 19 18 16 11 10 8 8 10 11 8 9 10 13 12 12 11 8 11 6 10 9 7 7 7 7 7 9 7 7 7 8 8 10 10 11 10 9 9 8 8 8 8 7 6 4 4 3 6
9 6 8 17 7 15 7 5 6 7 11 10 7 12 2 7 2 9 6 2 4 13 11 13 21 19 22 21 24 24 24 22 23 23 22 20 20 21 20 17 12 12 13 13 12 11 11 12 14 17 17 15 12 9 9 9 10 9 8 9 10 10 12 12 7 9 6 7 6 7 7 7 6 5 5 9 8 10 8 9 9 10 10 11 10 8 9 8 8 7 7 6 4 3 2 6 5
8 10 11 14 9 9 5 6 10 8 7 12 10 8 10 10 5 6 3 2 7 11 13 9 16 20 21 20 21 22 21 20 20 21 21 20 20 22 19 18 15 13 14 15 15 11 10 10 11 13 15 15 14 11 10 10 10 9 9 9 9 9 9 8 8 7 6 6 7 7 7 6 5 4 10 11 10 5 6 7 8 9 10 11 12 8 8 6 7 7 6 4 5 5 4 6 6
7 8 15 11 7 8 10 8 13 13 5 6 9 6 10 8 3 4 4 2 4 3 7 18 19 24 23 20 21 20 20 19 19 19 19 16 13 13 19 21 22 18 14 13 12 12 11 10 11 11 13 12 12 12 12 12 12 11 9 9 8 8 8 7 6 6 6 7 7 7 7 6 6 7 9 8 2 2 4 3 3 3 2 3 7 3 3 3 3 1 2 3 3 2 3 5 6
6 12 7 10 3 5 16 13 9 7 5 2 7 9 8 6 2 1 6 4 10 10 14 9 26 29 30 26 22 20 20 20 20 18 18 18 18 14 10 9 7 11 12 16 16 13 13 12 12 11 12 13 14 13 11 14 15 12 10 9 9 6 7 6 5 5 5 6 6 6 7 7 5 6 7 6 3 2 4 3 4 2 1 2 3 4 3 2 2 1 1 1 1 1 2 4 3
10 9 6 9 10 9 9 7 7 6 9 4 4 5 2 3 9 4 5 3 6 9 8 20 26 30 25 25 25 20 20 20 20 20 19 17 15 13 14 13 15 15 16 14 10 9 12 12 11 11 12 12 9 9 9 10 11 10 9 8 10 7 6 7 6 4 4 4 5 5 7 6 6 5 5 5 5 5 6 6 6 3 3 4 3 5 3 1 2 3 3 2 1 1 2 3 4
8 16 4 12 8 12 18 16 13 3 4 10 10 3 9 5 9 4 3 4 5 7 15 20 18 20 22 23 18 21 19 19 18 17 17 18 19 18 17 17 11 9 10 11 9 10 10 10 8 9 11 12 10 8 8 9 8 10 10 11 7 10 8 7 6 6 5 5 4 5 4 6 7 7 5 5 6 4 6 3 3 4 4 4 3 4 5 3 3 3 3 1 1 1 2 3 3
8 12 7 11 8 15 16 16 15 8 10 14 3 5 12 9 8 3 5 3 8 15 20 21 20 20 17 17 18 18 18 16 17 15 12 11 11 12 10 11 9 10 14 12 5 2 2 3 3 4 5 4 7 8 7 7 8 8 7 9 8 10 6 7 6 4 5 3 2 3 5 5 5 6 7 6 3 5 3 2 3 5 5 4 4 2 3 4 3 2 1 1 1 2 1 2 3
12 17 8 8 10 10 13 11 11 10 8 5 3 9 11 13 4 6 5 5 7 16 19 21 21 20 19 17 17 19 20 19 18 18 19 15 14 16 14 13 12 16 15 14 11 7 4 5 3 6 8 10 10 9 8 8 7 8 7 8 7 10 6 6 5 4 3 3 3 2 3 4 5 6 6 6 6 5 3 2 3 4 4 3 3 5 2 3 3 3 2 1 2 1 1 2 2
6 4 6 11 15 11 10 13 13 9 9 8 9 3 8 4 13 7 2 8 13 16 18 15 21 21 18 17 16 13 19 19 20 18 16 15 16 19 17 14 15 15 16 15 12 8 5 4 5 8 6 10 9 10 9 8 7 7 7 8 7 8 7 7 6 5 3 4 4 3 4 4 4 3 4 5 4 5 3 3 4 1 1 2 2 3 2 3 3 3 1 1 2 3 2 2 2
7 8 6 10 12 8 10 4 9 4 8 9 7 6 5 6 5 12 11 12 14 21 17 17 15 18 19 17 17 14 15 15 16 20 22 21 23 22 17 20 17 12 12 14 8 9 9 2 8 7 7 7 7 8 8 9 7 6 5 7 8 9 9 7 6 5 6 3 3 3 3 4 5 5 5 4 5 5 3 1 1 2 1 2 3 4 4 3 4 3 2 1 1 1 1 2 1
7 4 7 10 9 10 5 10 7 7 8 5 5 4 9 4 6 10 17 16 14 20 21 19 16 16 16 16 15 14 15 14 14 15 18 18 17 18 20 14 15 16 11 8 9 9 8 6 8 7 7 7 7 9 9 8 7 6 5 4 6 10 9 7 7 6 5 3 2 2 2 4 12 6 6 6 6 4 3 3 2 4 4 3 3 5 5 5 4 3 2 1 2 2 2 3 2
5 2 5 10 12 13 11 6 3 3 8 9 6 16 16 10 6 15 15 18 14 17 22 20 18 17 15 13 14 13 12 13 11 11 11 16 18 17 21 13 11 11 14 12 12 11 9 5 6 7 6 7 6 6 7 8 7 6 6 4 4 8 8 8 6 5 6 4 3 2 2 5 7 6 6 6 6 6 3 4 4 5 5 4 4 5 6 5 5 4 2 1 3 2 3 3 2
5 9 8 3 6 15 6 5 3 4 7 9 6 12 21 4 10 16 18 21 24 24 22 20 19 16 14 13 13 13 11 9 13 18 20 10 14 16 19 13 13 10 11 13 13 14 12 9 10 8 5 4 5 5 6 7 6 7 6 5 5 6 7 7 6 5 4 5 5 5 4 5 5 9 8 10 10 10 7 4 3 4 3 3 5 2 5 3 5 5 4 3 2 4 4 7 6
6 8 9 10 1 15 18 6 6 11 7 7 11 9 21 6 15 18 17 17 20 25 24 23 19 15 14 13 13 14 11 10 14 14 19 16 12 16 15 15 12 12 12 15 11 8 8 8 10 9 4 4 3 4 4 6 7 6 5 6 5 6 7 6 4 5 4 4 9 12 9 8 5 8 11 11 11 9 8 6 5 5 5 3 3 1 3 4 5 5 4 4 2 4 4 6 6
10 4 5 9 3 10 15 6 9 16 13 2 13 15 5 5 18 21 17 19 17 22 20 17 14 15 14 13 12 14 13 11 10 10 9 10 13 24 26 21 13 16 8 12 12 10 7 7 11 9 6 5 3 3 5 5 6 5 4 5 5 6 6 6 3 3 3 5 5 7 9 7 5 4 5 6 7 7 5 2 5 6 6 4 4 3 4 3 3 4 2 4 4 5 4 4 4
5 4 3 6 4 8 12 17 6 8 8 7 6 12 8 4 6 11 11 17 16 20 20 18 17 15 15 14 13 16 14 15 16 12 11 11 14 19 19 17 11 7 7 8 11 12 12 13 12 10 7 4 4 5 6 7 5 5 6 6 6 6 6 5 2 2 2 1 3 5 4 6 5 3 3 3 5 6 7 7 5 5 5 4 6 4 2 1 1 2 5 5 4 4 3 4 4
5 5 7 11 4 3 12 12 12 8 5 9 3 6 2 9 6 12 13 13 17 22 23 20 17 15 15 16 15 14 15 16 14 11 13 15 19 23 23 14 10 5 9 11 11 10 10 12 11 9 8 6 4 4 4 5 6 7 7 7 7 6 6 5 4 4 3 3 3 3 5 4 5 4 4 4 6 6 7 6 6 5 4 5 6 4 3 2 3 2 3 5 6 3 3 1 4
6 4 7 5 6 10 10 12 10 7 3 3 9 11 4 4 9 8 9 7 6 5 9 13 15 14 14 15 14 16 16 14 11 13 14 16 17 20 18 14 17 18 17 15 16 13 11 12 8 9 8 7 5 5 6 7 7 6 7 6 7 5 4 5 4 4 3 4 3 6 6 6 5 6 5 3 3 4 4 4 4 3 3 4 5 5 5 5 5 5 3 5 5 3 3 3 4
2 2 2 9 6 10 8 8 9 4 11 3 4 4 8 11 15 11 9 10 9 10 12 14 18 18 20 20 17 15 15 16 13 16 13 14 11 11 13 15 15 14 9 9 12 13 14 14 12 10 8 8 10 10 7 9 8 7 5 5 6 2 4 4 5 4 5 4 3 3 4 4 5 4 4 2 2 5 4 3 5 5 5 5 4 5 5 5 4 4 3 3 4 3 2 2 3
5 5 5 9 3 8 8 6 10 9 6 3 4 7 6 6 11 18 13 12 12 17 16 14 16 17 16 17 15 14 12 9 15 14 15 15 11 8 7 10 5 14 13 5 9 11 13 13 12 12 10 9 8 9 9 7 5 9 10 8 8 5 7 9 6 4 5 6 4 4 5 5 4 2 2 2 4 6 6 5 7 7 6 4 5 4 3 4 3 2 4 3 2 3 5 4 4
3 6 4 2 11 7 13 5 8 11 10 2 4 3 3 3 7 9 17 23 21 21 26 25 22 16 16 15 13 13 11 14 12 15 16 16 15 14 14 12 11 9 9 9 6 6 12 13 11 10 10 11 8 7 10 10 5 6 10 9 10 9 5 3 6 3 3 7 7 5 6 6 6 5 4 4 4 6 6 6 5 6 7 6 5 3 2 4 5 6 5 5 3 4 3 4 4
6 1 5 5 8 6 11 11 9 11 8 3 6 5 7 9 4 5 10 18 13 17 14 13 20 25 23 24 24 22 15 19 20 20 21 17 17 17 15 14 13 11 11 9 8 9 13 13 10 9 10 9 9 6 8 7 8 6 8 10 5 8 9 6 6 5 6 9 10 7 7 6 6 6 3 5 6 7 6 6 5 4 5 5 7 6 4 5 4 4 5 4 6 5 4 2 1
5 2 3 3 2 6 5 7 9 8 5 6 8 12 7 10 3 6 6 7 6 7 7 4 6 4 4 8 10 19 26 23 20 17 17 17 18 19 19 15 13 14 14 14 13 14 14 13 11 11 11 11 9 7 9 11 13 11 11 10 9 11 8 6 8 9 6 6 7 8 5 4 7 7 5 6 7 8 6 6 7 5 5 3 5 6 6 5 5 4 5 5 4 5 3 3 5
7 8 10 8 4 3 4 6 9 16 10 11 6 8 7 9 7 4 4 5 3 5 9 13 6 4 10 14 14 8 7 17 26 26 23 20 18 16 14 14 14 12 13 13 14 13 13 12 12 10 9 10 10 8 10 12 13 15 13 14 11 9 10 8 9 9 6 8 8 3 5 5 7 7 6 6 6 7 8 6 6 7 5 4 4 4 3 4 2 2 4 6 5 3 7 4 4
3 12 10 7 7 4 3 5 9 5 5 5 4 10 11 12 3 2 4 9 8 4 9 5 7 7 8 10 13 12 15 13 7 8 13 16 15 15 13 15 15 14 10 7 6 11 12 13 12 12 11 9 8 8 8 12 12 12 13 13 12 13 12 5 3 3 9 4 6 6 3 4 4 9 6 6 7 7 7 7 7 7 6 6 4 4 5 3 4 3 3 5 4 7 7 6 6
8 6 6 9 9 3 4 7 6 7 4 8 11 9 8 11 11 3 3 7 8 8 8 7 8 8 8 9 12 12 16 11 15 16 15 16 18 21 21 18 14 15 13 13 13 11 12 12 11 10 8 9 7 9 8 12 15 11 10 9 10 11 10 9 5 5 5 6 8 5 5 5 5 5 8 7 7 8 9 8 8 7 7 4 5 6 5 2 6 6 5 5 5 5 9 11 7
10 4 10 9 9 8 7 8 5 2 2 11 11 8 6 9 14 4 2 5 4 12 15 14 13 10 10 10 11 9 11 12 17 21 21 21 19 17 15 17 16 14 16 18 19 17 14 13 11 8 9 9 8 8 10 10 15 15 14 13 9 5 7 9 5 4 6 5 8 4 5 4 5 5 6 8 6 7 8 9 7 7 7 6 6 7 5 6 7 7 6 9 8 8 6 5 8
8 7 6 8 7 5 6 6 8 3 9 7 5 4 8 12 13 13 7 5 3 11 16 17 16 18 16 13 10 11 10 9 13 19 20 18 18 18 19 18 20 21 20 20 16 15 13 14 15 12 10 10 10 10 10 10 11 13 14 11 13 8 6 6 6 6 6 5 9 5 5 5 3 5 5 6 8 7 8 8 8 7 6 5 7 6 6 7 6 8 6 6 6 9 5 6 8
4 8 5 5 12 6 6 9 8 10 3 9 6 4 6 8 11 1 7 9 8 9 13 10 7 7 8 11 15 15 15 13 12 11 11 12 11 13 13 13 21 22 13 15 15 13 10 10 12 12 11 11 10 12 10 12 9 11 14 13 14 13 8 9 8 5 5 6 10 6 7 5 2 3 4 6 7 8 7 6 7 5 4 5 6 6 7 7 6 7 7 8 9 9 8 9 9
4 4 5 4 5 14 9 9 10 9 8 8 7 4 6 7 11 9 9 10 9 12 11 8 9 14 15 12 14 15 14 12 11 12 11 9 9 8 12 19 25 22 17 16 12 11 13 12 12 13 10 11 9 8 7 9 10 10 10 14 15 15 14 12 11 10 8 9 9 9 5 5 3 2 3 6 7 7 8 6 5 4 5 5 6 5 5 6 5 7 9 9 8 7 7 10 9
10 8 12 7 8 10 11 11 7 6 10 4 2 2 6 6 8 11 15 12 11 5 7 7 16 13 12 11 12 13 12 10 12 12 12 12 15 16 16 16 18 21 25 20 15 13 13 14 15 16 13 9 10 8 11 12 13 13 13 13 12 14 14 12 9 8 7 10 9 8 7 9 4 5 4 7 4 6 8 8 6 6 5 5 5 6 5 6 7 8 8 8 8 9 8 9 11
10 10 9 11 5 5 7 8 6 8 11 6 2 4 6 8 9 4 8 9 5 11 10 9 11 16 14 13 11 11 10 10 8 9 12 13 14 14 15 18 14 16 15 15 13 13 13 14 15 15 12 12 14 17 17 16 13 11 10 12 13 14 13 13 11 11 8 7 8 9 9 10 9 8 6 7 7 5 6 6 6 5 4 4 4 5 5 5 6 8 6 8 7 5 7 9 9
9 7 16 13 16 15 8 9 9 11 10 5 7 5 10 4 9 11 6 5 12 13 16 12 12 9 8 10 13 12 12 8 7 5 6 8 12 13 11 10 18 19 11 12 12 12 12 13 15 22 15 17 18 15 12 13 12 8 7 10 14 13 14 13 12 10 10 8 6 7 6 6 8 6 8 3 2 3 5 6 6 7 5 5 5 5 5 6 6 7 6 6 6 6 8 9 7
2 7 12 12 11 14 7 13 8 6 4 4 3 7 8 12 5 8 5 8 13 15 16 18 17 13 13 15 13 13 11 11 11 12 10 10 3 3 13 22 11 8 8 9 11 12 13 15 20 18 13 12 12 17 14 10 10 11 9 11 13 14 13 12 11 8 7 6 6 7 7 6 6 6 4 2 1 2 4 4 4 6 5 5 5 6 5 6 6 9 6 6 6 4 9 8 6
8 5 7 8 8 16 13 5 2 6 11 9 4 3 3 12 5 10 13 11 9 12 14 16 15 14 16 16 14 13 11 10 9 14 17 13 11 6 12 18 18 11 10 12 12 11 12 16 20 17 19 21 18 27 17 6 8 11 11 11 11 12 14 14 15 11 10 7 6 6 7 6 5 6 7 3 2 1 2 4 4 4 4 6 6 5 5 4 5 7 8 6 6 5 8 6 6
12 8 12 5 7 11 12 8 8 9 7 13 3 8 7 8 13 9 6 8 6 9 10 12 12 18 17 14 15 17 18 16 15 20 20 9 7 7 7 14 17 19 15 12 8 6 6 10 15 17 14 22 18 21 19 16 10 9 11 12 12 14 15 14 13 14 10 10 7 6 3 5 8 7 6 4 4 3 3 4 4 4 4 5 6 6 6 6 5 6 6 6 5 5 7 5 6
3 7 5 8 8 4 9 14 4 5 7 8 3 2 5 8 8 5 5 9 3 5 5 7 9 11 16 17 20 20 20 20 14 9 11 11 10 8 6 6 9 11 10 9 8 7 6 6 9 11 13 16 17 16 13 7 9 8 11 17 17 14 13 14 13 12 11 12 11 9 8 10 5 4 5 4 4 4 4 4 3 4 3 4 4 6 6 6 5 6 4 7 4 5 6 6 2
2 5 8 2 12 8 7 11 10 14 7 4 10 7 9 8 8 5 7 7 7 8 6 5 5 6 7 10 12 14 15 11 8 13 13 12 12 6 5 7 10 10 9 8 7 6 7 7 7 9 10 13 14 13 11 9 11 12 11 9 12 14 13 14 13 13 13 13 13 12 9 5 8 5 5 4 5 6 7 7 6 6 5 3 3 3 5 6 4 4 5 5 4 6 6 6 4
14 14 10 8 10 5 13 5 4 9 14 11 10 5 9 10 9 5 8 9 9 9 13 7 7 6 6 9 13 14 10 10 7 9 11 11 9 6 5 5 6 6 6 6 6 8 6 5 6 7 12 11 9 7 6 8 8 11 12 12 14 13 13 12 12 12 13 13 11 10 11 10 5 7 7 6 5 7 7 9 8 7 7 7 6 6 5 5 6 4 4 5 5 6 7 6 6
8 5 4 6 6 8 6 8 4 5 11 11 11 11 13 15 4 5 8 8 11 10 14 12 10 9 7 5 9 13 11 6 6 6 7 9 6 4 5 6 6 9 8 8 5 5 6 6 7 8 7 7 7 4 2 2 4 10 12 11 8 11 13 10 10 8 5 5 5 4 3 3 8 9 9 9 9 8 6 6 6 8 8 8 8 7 6 5 6 6 5 4 6 5 5 6 4
Wind_Speed
3 1 1 2 2 2 2 3 1 3 2 4 3 2 2 2 3 4 6 2 2 2 2 2 2 3 2 2 8 7 7 2 2 7 4 1 4 9 11 13 12 12 12 9 8 9 10 12 13 13 13 14 14 14 13 15 16 16 16 17 17 17 17 17 17 17 17 17 17 17 17 17 17 17 16 16 14 14 15 15 16 16 17 16 15 14 13 15 15 14 15 15 15 14 14 14 15
2 1 1 1 1 1 1 1 3 1 5 1 8 2 3 2 0 5 7 2 2 2 1 6 8 12 14 10 8 4 4 6 2 1 4 6 10 8 11 12 12 14 10 9 8 8 9 11 14 13 13 15 14 15 15 15 15 16 16 16 17 17 16 16 17 17 17 16 16 16 16 16 16 16 15 15 14 12 12 14 14 15 16 15 14 14 13 13 13 12 13 14 15 13 13 14 14
1 1 2 1 4 3 1 2 0 1 3 2 8 5 2 4 5 6 8 2 5 5 3 8 7 4 2 1 6 2 1 4 7 6 6 7 11 4 8 9 10 11 11 9 9 9 8 12 14 15 15 15 14 15 15 15 15 16 16 16 16 16 16 16 16 16 16 15 15 15 15 15 15 15 14 14 13 11 11 11 12 14 14 13 13 13 15 14 13 14 14 13 14 12 12 13 13
1 2 4 2 0 3 2 3 4 7 3 7 7 5 4 4 5 3 4 2 5 5 3 1 3 2 4 6 4 4 5 3 4 5 7 5 4 8 9 10 9 8 8 8 10 10 10 14 18 15 15 15 14 14 15 14 14 15 15 16 16 16 17 15 16 16 16 15 14 15 14 14 15 15 14 14 12 11 11 9 9 12 12 12 11 14 14 14 12 12 12 10 11 12 11 12 12
1 1 1 2 4 1 2 1 3 3 3 5 5 5 4 4 8 6 3 4 5 4 3 1 4 3 2 5 1 2 1 7 6 3 4 6 8 8 12 10 9 9 8 6 6 7 9 20 18 16 15 15 15 14 14 14 14 14 15 15 16 17 17 16 16 16 16 15 14 14 14 14 14 14 14 13 12 12 11 10 10 10 10 8 8 11 15 12 12 11 10 9 10 11 11 10 10
3 2 2 1 0 2 3 1 0 4 9 3 0 5 3 6 6 5 7 1 0 1 2 2 3 3 4 4 3 3 1 2 7 6 8 8 13 13 12 12 12 10 8 7 5 3 6 16 16 15 14 15 15 15 14 14 14 14 15 15 16 17 17 16 16 15 15 15 15 15 15 15 14 14 14 14 13 12 12 11 9 10 10 9 10 14 14 13 12 11 9 9 9 9 9 9 9
0 3 3 3 1 3 4 2 4 5 10 5 2 4 9 11 11 7 11 5 1 1 2 2 7 8 7 1 4 6 4 5 5 6 6 11 12 12 13 12 13 11 11 8 7 4 7 14 14 14 15 15 14 14 14 14 14 14 15 15 15 17 17 16 15 15 15 15 15 15 15 14 14 13 13 13 13 13 12 11 10 9 12 13 14 14 14 13 12 10 9 8 8 8 8 9 9
1 2 1 2 1 1 0 2 5 5 6 5 2 4 9 9 10 4 8 1 2 0 2 5 3 7 2 3 5 7 11 8 12 14 13 9 13 12 10 10 12 10 7 9 8 6 10 10 12 12 13 13 14 15 14 13 13 12 14 14 15 16 17 16 15 14 13 14 15 15 14 14 13 13 13 13 13 13 12 11 10 12 13 13 13 13 13 12 11 10 9 7 7 8 8 8 9
3 4 0 4 1 1 1 4 5 3 5 4 7 8 12 11 11 6 11 3 3 2 3 1 1 7 0 10 5 6 7 11 12 13 12 14 13 11 8 10 11 8 6 7 8 7 6 9 8 10 12 12 13 13 13 13 12 12 13 14 14 14 14 14 15 14 13 12 13 13 13 13 13 13 13 13 13 12 12 11 11 12 13 13 13 13 12 12 11 9 8 7 7 7 7 8 8
2 2 1 2 3 1 1 7 1 4 2 4 5 11 10 8 7 6 11 8 5 5 2 5 3 11 10 10 4 5 5 9 15 13 10 11 12 11 12 10 10 10 10 11 9 8 5 8 5 10 11 11 12 12 11 11 12 11 12 13 12 12 13 14 13 13 13 13 12 12 13 13 13 13 13 13 13 12 12 11 12 12 12 12 12 12 11 11 10 9 7 7 7 7 7 7 7
0 4 2 3 1 1 3 6 5 5 5 5 9 11 12 11 6 8 6 6 4 6 6 8 9 10 8 4 3 2 7 9 13 13 9 9 11 12 11 10 9 8 12 12 12 12 9 7 6 6 8 9 10 11 11 11 11 10 11 12 12 12 14 13 14 14 13 13 13 13 13 12 13 12 12 12 12 12 11 11 11 11 11 11 11 10 9 10 9 9 7 7 6 6 6 5 6
1 1 1 3 2 4 4 3 3 6 8 4 4 7 4 6 2 2 4 5 4 2 3 2 5 9 8 4 3 5 8 9 9 11 11 10 10 11 11 9 10 10 10 10 10 6 10 8 1 7 8 8 9 10 11 11 11 11 12 12 12 12 14 13 13 13 14 13 12 12 12 12 12 12 11 12 12 11 11 11 11 10 10 10 10 10 9 9 9 8 7 6 5 5 4 4 4
2 1 4 3 2 1 3 2 4 4 5 5 4 7 8 6 2 2 5 6 5 5 1 3 18 4 5 3 3 5 10 10 9 8 10 10 10 10 9 9 10 10 11 10 13 11 9 8 3 2 6 12 11 10 10 11 11 12 12 12 12 13 13 13 12 13 13 13 12 12 12 12 12 12 12 11 11 11 11 10 10 10 10 10 9 9 9 9 8 7 6 6 4 4 3 2 3
2 5 3 1 1 2 2 2 1 3 4 4 3 5 5 2 1 0 5 6 2 2 1 13 8 11 7 5 4 6 8 10 10 8 9 10 9 10 10 8 9 10 10 9 10 12 11 9 6 4 6 6 5 9 9 11 10 11 12 12 12 12 12 12 12 11 12 12 11 11 11 12 12 12 11 11 10 9 9 9 9 10 10 10 9 9 9 8 7 6 5 4 3 2 1 2 3
1 1 2 1 1 0 3 2 2 2 6 3 6 6 9 4 3 1 3 7 5 2 6 5 3 6 6 10 3 6 10 13 11 11 11 10 11 10 10 8 9 9 10 11 10 10 11 10 9 7 7 5 7 5 6 9 12 11 12 12 12 12 12 12 12 11 12 11 11 11 11 12 12 12 12 10 9 8 8 8 6 7 9 10 9 9 9 8 7 6 5 3 1 1 1 2 3
3 3 2 1 3 3 5 2 1 0 6 3 8 7 4 3 4 3 2 3 4 3 4 1 2 0 5 13 14 13 15 13 12 12 12 12 9 8 8 8 8 7 7 9 10 11 12 12 9 6 6 7 5 5 5 5 11 13 13 13 12 11 11 12 12 11 11 11 11 10 10 8 9 8 11 9 10 7 6 4 6 6 8 9 8 8 8 7 6 6 4 3 1 1 2 3 4
1 2 0 1 5 3 3 2 4 1 4 5 5 7 5 4 4 2 3 6 11 2 6 5 5 4 12 2 13 17 15 14 13 15 12 10 8 6 6 5 6 5 5 4 5 8 10 11 12 10 8 8 6 5 4 4 8 12 10 11 12 12 11 12 12 12 10 10 9 9 7 5 4 5 6 4 9 4 5 6 7 7 7 7 7 7 7 6 6 5 5 5 2 2 2 3 4
2 1 3 3 4 2 4 2 3 3 2 7 7 4 5 4 6 2 3 9 7 8 9 3 11 11 10 8 16 16 14 15 16 16 13 11 8 8 7 6 7 8 6 6 5 6 8 8 10 11 10 11 7 5 4 4 5 7 5 6 6 9 9 10 8 5 7 4 8 6 4 4 4 4 4 6 4 4 5 6 7 8 7 7 7 6 6 5 5 6 5 5 3 1 3 2 3
3 1 2 8 3 5 4 2 3 1 6 7 3 5 0 4 1 2 3 1 2 8 6 7 11 12 15 14 16 14 14 14 16 15 15 14 11 12 10 8 7 7 7 7 6 7 6 7 7 8 9 9 8 6 5 5 6 5 5 6 5 7 7 7 5 5 4 4 4 4 4 4 3 3 3 5 4 7 5 7 7 8 8 8 7 5 5 5 5 4 4 2 1 0 2 3 3
3 5 5 7 4 4 3 4 5 4 5 8 6 5 5 7 1 1 0 1 5 6 7 4 8 14 13 14 12 13 10 13 14 14 13 14 13 12 11 11 8 8 8 8 8 6 6 6 7 7 8 8 8 6 6 6 6 5 5 5 5 5 5 4 5 4 4 4 4 4 4 4 3 3 6 8 6 3 4 5 6 7 7 7 7 4 5 4 5 4 3 0 3 3 2 3 3
2 2 5 3 3 2 6 5 9 9 4 3 5 4 6 5 0 1 1 1 2 1 4 9 12 16 16 13 13 11 11 12 13 13 13 11 8 5 7 9 9 8 6 6 5 7 7 6 6 7 8 7 7 7 7 6 6 6 5 5 5 4 4 4 3 4 4 4 4 4 4 3 4 4 3 3 2 1 3 2 2 1 0 1 4 1 1 1 1 0 1 2 1 1 2 2 3
2 6 4 5 1 2 11 8 7 4 4 1 5 6 4 3 1 1 4 2 3 5 8 5 16 18 19 17 13 11 12 12 13 13 13 13 12 9 5 3 3 3 2 6 7 6 6 6 6 6 6 6 7 6 6 8 8 6 6 5 5 4 4 4 3 3 4 4 4 4 4 4 3 4 3 3 2 2 3 2 2 2 1 0 2 2 1 0 0 0 0 0 0 1 1 1 2
3 4 3 5 5 4 5 4 3 3 3 2 1 3 0 2 5 2 3 1 3 3 4 12 17 20 15 14 15 13 12 12 13 14 13 11 9 8 8 6 7 7 5 4 3 4 4 4 4 4 6 5 3 3 5 6 5 5 5 4 5 4 3 4 3 2 2 3 3 3 4 4 3 4 3 2 2 1 2 2 2 2 2 2 1 2 1 0 1 2 2 1 1 1 1 2 2
4 6 2 7 4 7 10 10 10 2 4 5 3 3 4 4 6 1 1 2 3 4 10 14 13 14 15 14 12 14 12 12 12 11 12 12 13 12 10 9 7 4 5 3 1 0 0 2 1 2 1 1 2 2 4 5 5 5 6 6 4 5 4 4 3 3 2 3 2 2 2 3 4 3 3 3 3 2 2 2 2 3 2 2 1 2 2 2 2 2 1 1 0 0 1 2 2
5 4 4 5 4 8 11 10 10 5 7 7 2 2 9 7 4 2 2 2 4 10 14 14 14 14 12 12 12 11 11 9 11 10 8 7 7 7 6 6 5 6 9 8 2 1 1 2 2 3 3 2 0 1 3 4 5 5 4 5 4 5 3 4 3 2 2 2 2 2 2 3 2 3 3 3 2 3 1 1 2 3 2 2 1 1 1 2 2 1 1 1 1 1 1 1 2
5 9 2 4 5 7 8 6 7 7 4 2 1 6 8 9 2 3 3 4 5 10 13 15 15 14 13 12 12 12 11 12 11 12 12 10 9 10 9 8 7 10 9 9 7 5 2 2 2 4 5 6 5 4 3 4 4 5 4 5 4 4 2 3 3 3 2 2 2 1 2 2 3 3 3 1 2 2 1 1 1 2 2 2 1 2 1 1 1 1 0 0 1 0 0 1 1
3 3 4 6 10 6 6 6 8 6 5 5 4 3 4 2 7 2 0 4 9 11 12 11 15 14 12 11 10 9 12 13 13 11 10 9 10 11 11 9 10 9 7 9 7 5 3 2 3 5 4 6 4 3 3 3 4 4 4 5 4 5 4 4 3 2 2 2 2 2 2 2 2 2 1 1 1 1 1 1 1 1 1 1 1 1 0 1 1 1 0 1 1 2 2 1 2
4 4 4 6 7 5 6 3 6 3 3 6 5 4 2 3 1 6 7 7 10 14 11 12 10 11 12 12 11 9 9 9 9 12 15 15 13 12 9 11 11 8 6 5 5 5 5 1 5 5 5 4 4 4 3 4 4 3 3 4 5 5 4 4 3 2 2 2 2 2 2 2 2 3 1 1 1 1 1 1 0 1 1 1 2 2 2 1 2 1 1 1 0 1 1 1 1
4 1 3 7 6 3 4 5 5 5 3 3 4 1 4 1 3 5 10 10 10 13 14 12 11 10 10 10 9 8 8 8 8 9 12 11 10 11 12 9 9 10 6 5 4 4 4 3 4 5 4 4 4 4 3 3 3 3 3 3 4 5 5 4 4 4 3 2 1 1 1 3 5 1 1 3 4 2 1 1 2 2 2 2 2 3 3 2 1 1 0 1 1 1 1 2 1
3 1 2 6 7 6 5 3 2 2 2 7 4 6 8 5 4 8 9 11 10 10 13 12 11 10 9 8 8 7 6 7 6 4 3 1 10 11 14 9 6 5 6 6 8 7 5 2 3 3 3 3 3 2 3 3 3 3 3 3 3 5 4 4 4 3 3 2 2 1 1 2 3 1 1 1 1 2 1 2 2 2 2 2 2 2 3 3 2 1 1 0 1 1 2 2 1
1 2 4 0 3 5 3 1 1 2 3 6 4 5 9 1 5 10 11 14 16 14 13 13 12 11 8 8 8 8 6 5 7 8 13 7 6 8 11 7 8 6 2 4 8 7 6 5 5 4 3 2 3 3 3 3 2 3 3 3 3 4 4 4 4 3 3 3 3 1 2 1 3 5 2 3 3 4 4 2 2 2 2 1 1 1 2 1 2 2 2 2 0 2 3 4 3
2 2 3 4 0 7 10 4 4 5 2 5 6 2 9 4 8 10 11 10 13 15 15 15 12 9 8 7 8 6 6 5 6 9 7 7 3 6 3 3 3 7 7 5 6 5 3 4 6 5 3 3 2 2 3 3 3 3 3 3 3 4 4 3 3 3 3 3 5 3 3 4 2 5 6 5 4 4 3 2 2 2 2 1 1 0 1 2 1 2 1 1 0 2 2 3 3
4 2 2 4 0 5 7 3 5 11 5 1 8 6 1 3 9 13 11 13 11 14 14 13 10 11 9 8 6 7 7 7 5 5 3 6 7 8 8 7 3 2 3 1 6 6 5 5 7 6 4 4 3 2 3 3 3 3 3 3 3 4 4 2 1 1 2 3 3 4 5 4 3 3 4 5 5 5 2 1 2 3 3 2 1 1 1 1 2 2 1 2 1 2 2 3 2
2 1 1 3 2 3 4 8 4 2 4 3 3 4 3 2 3 5 5 9 10 13 15 12 10 8 8 7 7 7 8 8 9 7 6 8 8 10 12 12 7 3 1 1 4 7 7 8 7 7 5 3 2 3 3 3 2 2 4 4 3 4 4 2 1 1 1 1 2 3 3 3 2 2 2 2 2 3 3 2 2 3 3 2 2 1 1 1 1 2 3 3 2 2 2 3 3
2 2 3 5 1 2 6 3 5 5 0 5 0 3 1 4 1 5 5 4 6 11 11 9 7 8 7 8 8 8 8 9 8 6 8 8 9 10 10 6 6 4 6 8 5 5 5 5 7 6 5 4 3 2 2 3 4 4 4 4 4 4 4 3 2 2 1 1 2 2 3 2 2 3 3 3 3 3 2 2 3 2 2 2 2 2 2 2 2 0 2 2 2 2 2 1 2
3 2 3 3 3 4 4 5 3 2 0 2 5 4 2 1 6 6 6 5 4 3 4 6 7 7 8 8 8 9 9 8 6 7 8 7 8 10 8 7 7 9 8 6 4 4 6 5 5 5 5 5 4 3 4 4 4 4 4 4 4 3 3 3 3 2 1 2 1 2 3 3 3 2 2 2 2 3 2 2 2 1 1 2 2 2 2 3 3 1 1 3 3 2 2 2 2
1 1 1 6 3 6 4 4 5 1 5 1 2 3 5 5 8 7 6 6 5 6 7 7 8 9 9 10 9 8 8 7 7 9 9 10 7 5 5 8 7 8 7 6 1 4 5 7 7 6 5 5 6 5 4 4 3 2 3 3 3 1 3 3 3 2 3 2 2 2 1 1 2 1 1 1 2 3 2 2 2 2 1 2 2 2 3 4 2 0 1 2 2 1 1 1 1
3 1 3 5 2 5 4 2 5 5 1 1 2 5 2 4 4 9 9 7 7 11 11 10 10 9 8 10 10 8 5 5 10 8 8 8 6 5 4 6 3 8 6 3 2 6 4 6 8 7 6 6 5 5 5 4 3 4 4 3 3 2 4 5 3 3 3 3 3 3 3 3 2 1 1 1 2 4 3 2 3 3 2 1 2 1 2 2 2 0 1 2 1 1 1 1 1
2 4 3 1 5 3 8 2 5 5 4 0 2 3 2 0 2 5 8 15 10 12 16 15 14 10 9 9 8 9 6 8 7 8 9 9 8 7 7 6 5 3 2 4 3 4 3 7 6 6 6 7 5 4 6 5 3 3 4 3 5 4 2 1 3 2 2 4 3 3 4 4 4 3 2 1 2 3 3 2 2 3 3 3 1 1 1 2 2 2 1 2 1 1 0 1 2
4 0 2 2 3 3 4 4 5 7 3 0 1 1 2 5 2 4 5 1 0 6 7 8 11 15 15 15 15 13 10 12 13 12 12 10 10 9 7 7 6 6 5 4 5 5 3 6 6 5 5 6 6 4 4 4 5 4 4 5 3 3 4 3 4 3 3 5 5 4 4 4 4 4 2 2 4 4 4 3 2 3 3 3 3 2 2 2 2 2 2 2 3 3 1 1 0
2 1 1 1 1 2 3 3 4 1 3 4 4 6 3 5 1 1 3 1 3 1 3 2 2 2 1 0 3 10 16 15 12 11 11 10 11 11 10 7 6 7 7 7 6 5 4 7 7 7 7 7 5 5 6 7 7 7 6 5 5 6 5 4 5 5 4 4 4 5 3 3 4 4 3 3 4 5 4 4 4 3 3 2 3 3 2 2 2 2 2 2 2 2 2 1 2
3 4 6 4 3 2 2 3 3 7 1 6 3 3 2 4 3 3 2 0 1 3 6 6 4 2 4 7 7 5 4 8 15 16 14 12 10 8 7 7 6 4 5 3 4 4 5 7 7 6 6 6 6 5 6 7 7 9 7 7 6 5 5 4 6 5 4 4 4 1 3 3 4 4 3 4 3 4 4 4 4 4 3 3 3 2 2 1 0 0 1 2 2 1 2 1 2
1 5 6 5 4 3 0 2 4 2 1 3 2 3 2 6 0 1 2 5 5 1 5 4 4 4 5 5 5 7 7 7 4 4 6 9 9 8 7 7 7 7 5 4 3 3 4 6 7 7 7 6 5 5 5 7 7 7 8 8 7 7 7 1 0 2 5 3 4 4 3 3 3 5 4 4 4 4 4 4 5 4 3 3 2 3 3 2 2 1 1 2 2 4 4 2 2
2 1 4 6 6 2 2 4 2 2 2 3 6 3 2 1 2 1 2 4 5 5 5 5 5 6 6 6 6 6 8 7 7 9 9 9 10 12 12 9 8 8 8 8 7 7 8 8 7 6 5 6 5 5 5 6 8 6 6 5 5 6 6 6 3 3 3 4 5 3 3 3 3 3 4 4 4 4 5 5 5 4 4 3 3 3 3 1 2 3 2 3 2 2 5 6 3
3 2 7 6 5 4 4 4 3 1 1 5 6 5 1 2 4 1 1 3 2 7 8 8 8 7 6 6 6 5 7 8 10 11 12 13 12 11 9 10 10 9 10 11 12 11 9 8 7 5 6 6 5 6 6 5 7 7 7 6 4 1 4 5 3 2 3 3 5 3 4 3 3 3 3 4 3 4 4 5 4 5 4 4 3 5 3 3 3 3 3 4 4 4 3 3 4
4 5 4 4 4 3 3 3 4 1 4 2 2 1 1 5 6 6 2 3 1 6 9 10 10 10 9 8 7 7 7 6 7 10 11 11 11 11 11 11 12 10 9 12 10 9 8 8 9 8 7 6 6 6 6 5 5 6 6 6 7 4 3 4 4 4 3 3 5 4 4 4 3 3 3 3 4 3 5 5 5 4 4 4 4 4 4 4 4 4 3 4 3 5 3 3 4
3 5 3 2 7 3 3 5 3 4 1 3 3 2 3 1 4 0 3 3 3 4 8 5 3 3 5 6 9 9 9 8 7 7 7 8 7 7 6 6 11 10 5 7 6 8 6 6 8 8 7 5 6 6 5 6 5 6 7 7 9 8 5 5 5 3 3 3 5 4 4 3 1 2 2 2 3 4 4 4 4 4 3 3 3 4 4 4 4 4 4 4 5 5 4 5 6
2 2 2 1 1 6 3 4 5 3 2 3 4 2 1 2 3 5 5 4 5 6 7 6 5 9 10 8 8 8 9 8 6 7 7 5 5 5 8 12 16 14 12 8 7 7 8 7 7 8 5 5 4 4 4 5 7 6 6 9 9 9 9 6 7 6 4 5 4 4 3 3 2 1 1 3 3 3 4 4 3 3 3 4 4 3 3 4 3 4 5 5 4 4 4 6 5
5 5 6 3 2 3 3 5 1 1 4 1 1 0 2 2 2 6 9 5 4 3 4 4 5 8 7 7 8 8 7 7 7 6 7 7 8 9 11 10 12 13 14 13 10 8 8 9 10 10 6 6 6 6 7 8 8 8 8 8 8 8 8 8 6 5 4 6 5 4 4 4 2 2 2 4 3 4 4 5 4 4 3 3 3 4 3 4 4 5 5 5 5 5 4 5 6
5 4 4 5 1 1 1 2 0 2 5 4 1 2 1 2 5 2 5 5 3 3 4 5 4 2 8 8 7 6 6 6 5 6 7 8 9 9 10 11 8 7 9 10 8 8 8 8 8 6 7 8 9 10 10 9 7 6 5 6 7 7 8 8 7 7 5 4 5 5 5 6 5 4 4 4 4 3 4 4 4 3 3 3 3 4 4 3 4 5 4 5 5 3 4 6 6
4 3 8 6 7 4 2 2 2 5 5 2 4 1 2 2 3 4 4 3 2 8 8 7 8 5 4 5 7 7 8 5 4 4 4 6 8 9 5 7 10 8 6 3 6 7 7 6 8 12 7 8 8 6 5 6 5 4 4 4 7 6 8 7 7 6 6 5 4 4 4 4 5 4 5 2 1 2 4 4 4 4 4 4 4 4 3 4 4 4 4 4 3 3 5 6 5
0 3 6 6 5 6 2 4 3 2 1 1 0 1 2 3 3 4 3 2 7 9 10 12 11 9 8 9 7 7 7 5 4 5 4 6 2 1 8 10 5 4 2 5 5 6 7 8 12 12 8 3 1 6 8 4 1 6 6 7 7 7 6 6 6 5 4 4 4 4 4 4 4 4 3 1 0 1 3 3 3 4 3 4 4 4 4 4 4 5 3 4 4 2 6 5 4
2 2 3 3 3 9 6 2 1 3 5 2 0 1 1 5 2 5 6 7 6 8 9 10 10 9 10 9 8 8 7 7 6 4 4 8 5 2 8 12 11 6 6 7 6 7 7 10 12 11 12 9 10 9 1 5 5 5 7 7 7 6 7 8 8 7 6 4 4 4 4 4 3 4 4 2 2 1 1 2 3 3 3 4 4 4 4 3 3 4 4 4 4 3 5 4 4
4 1 5 2 3 6 5 2 3 4 2 3 1 3 4 3 2 4 4 5 4 5 6 8 8 12 11 8 7 10 11 10 9 11 12 4 1 2 4 9 11 11 9 7 5 1 3 5 10 9 8 13 12 12 11 6 5 5 6 6 6 8 8 8 8 8 6 5 4 3 2 3 5 4 3 2 3 2 1 1 2 2 2 3 4 4 4 4 4 4 4 3 3 3 4 3 4
1 3 2 2 1 1 3 5 1 1 1 2 1 1 2 4 2 2 3 4 1 3 4 5 6 6 10 12 7 8 12 11 6 4 2 1 4 3 2 5 6 7 7 7 3 3 3 4 5 6 9 11 9 10 8 5 6 5 6 8 10 8 7 8 7 7 6 6 6 5 4 5 2 2 2 2 2 2 2 2 2 3 1 2 2 3 4 4 3 4 2 3 2 3 4 4 2
1 2 2 0 3 3 2 3 3 6 2 2 4 3 2 3 2 3 4 4 3 4 4 4 4 4 4 5 4 8 10 7 5 0 0 4 6 4 2 3 5 6 5 4 4 3 4 3 5 7 7 9 10 9 7 6 6 6 6 4 4 6 7 8 7 8 7 7 7 7 5 4 5 3 2 1 1 2 3 3 3 3 3 2 2 2 4 4 3 3 3 3 2 3 4 4 3
5 6 5 3 3 1 4 2 1 3 5 4 3 1 3 3 4 3 6 5 6 5 6 4 4 4 3 4 7 8 7 7 4 2 2 5 6 4 3 2 2 2 2 3 3 4 3 3 4 4 8 7 6 5 4 5 5 4 5 6 6 5 7 7 7 7 8 7 6 6 6 5 3 4 4 4 3 3 3 3 2 3 4 4 4 3 3 3 4 3 3 3 3 2 4 2 3
4 2 1 3 1 2 3 3 1 2 4 3 4 3 5 7 2 3 4 4 5 4 8 7 7 6 5 3 2 4 6 3 4 4 4 6 4 3 3 2 3 3 3 3 2 3 3 4 3 5 4 4 5 3 2 1 1 4 6 5 4 3 3 4 6 5 3 3 2 3 3 2 2 1 1 3 4 3 3 2 2 3 4 4 4 4 3 3 4 3 3 2 4 3 3 3 2
Wind_Direction
274 314 198 157 86 104 67 3 149 304 80 245 298 202 248 250 246 332 266 351 134 264 262 317 32 26 116 171 140 135 30 105 218 137 215 242 110 110 108 116 121 117 122 125 122 125 130 132 131 132 132 127 126 124 121 121 122 122 120 120 118 117 117 117 117 115 114 115 118 119 119 118 120 120 121 121 119 116 117 118 116 116 113 115 113 110 109 107 110 111 111 109 108 105 106 107 108
258 357 52 144 102 82 225 128 97 354 32 4 249 111 252 262 31 224 261 193 221 183 36 95 78 79 83 106 134 155 55 36 16 98 73 77 89 86 112 121 126 121 121 121 121 124 128 132 134 133 132 132 129 129 130 133 131 128 125 122 120 118 117 118 118 117 115 115 115 117 118 119 120 122 123 120 115 114 116 120 121 115 116 117 115 116 112 105 106 109 108 113 107 103 105 109 110
261 57 60 32 26 77 110 37 211 53 114 229 271 194 313 312 236 263 264 238 161 166 145 89 84 58 56 20 37 77 233 48 77 64 81 102 96 92 104 102 103 108 117 123 126 124 128 137 136 136 134 135 136 136 137 136 135 132 128 125 122 121 120 121 120 117 115 114 116 117 119 121 123 124 121 117 116 114 114 115 119 118 117 117 121 116 110 107 105 102 107 104 98 102 107 110 112
93 37 134 76 102 21 78 31 83 128 155 218 295 265 222 223 250 209 282 250 180 186 165 178 62 289 124 68 113 77 68 89 62 102 114 106 62 110 94 93 93 102 114 127 131 135 135 141 138 138 140 142 139 136 139 139 136 134 129 127 125 123 121 120 120 119 117 117 117 118 118 119 121 118 118 117 111 111 113 116 122 120 120 118 112 116 116 112 108 103 101 99 102 105 108 109 106
68 345 89 100 112 359 104 174 143 106 217 203 203 269 251 249 283 320 12 339 287 231 337 243 83 344 116 114 153 86 174 84 106 68 85 78 97 97 108 103 103 106 98 93 102 123 138 143 141 141 141 141 140 140 142 142 139 136 133 131 127 123 122 121 120 119 120 120 119 118 118 118 119 114 110 109 103 94 97 91 85 83 90 99 101 103 115 112 109 108 103 96 101 107 107 107 105
63 58 355 92 91 188 54 60 167 200 233 134 197 262 249 256 262 308 312 279 260 279 279 323 165 172 39 23 13 74 18 122 136 70 122 126 126 127 119 114 105 92 78 67 76 74 133 139 138 135 138 140 143 143 143 144 144 140 136 134 128 124 123 123 121 121 122 122 122 121 121 121 119 115 111 108 103 100 98 95 90 93 99 103 102 113 111 110 107 105 106 105 102 104 103 98 90
203 45 356 29 14 59 159 154 214 206 260 143 234 270 288 296 291 331 305 352 210 96 340 148 116 103 84 356 49 18 334 119 124 127 106 120 112 113 115 112 106 104 109 109 107 98 144 136 129 131 135 139 144 147 148 148 147 143 139 134 129 124 123 123 123 125 125 125 126 126 127 125 120 118 117 114 110 108 106 104 100 94 101 107 111 113 112 110 109 109 108 105 101 94 88 84 83
80 119 278 106 215 51 196 200 241 177 272 175 221 280 281 277 285 305 288 292 284 7 58 139 43 83 26 14 86 23 44 53 92 97 99 98 107 103 102 111 104 105 108 109 113 114 133 120 118 126 128 142 148 149 149 149 146 142 138 134 127 124 124 124 124 124 126 126 128 129 129 127 125 124 121 118 115 113 112 113 112 106 107 108 112 113 113 113 111 111 111 107 98 91 85 82 81
350 84 283 77 85 29 40 231 253 237 281 296 272 239 264 263 266 266 280 224 293 107 138 285 39 73 304 71 58 70 56 86 83 85 91 105 107 112 110 106 109 108 82 80 72 89 103 122 116 122 130 141 149 150 148 148 147 145 139 132 126 124 125 124 125 125 124 126 129 129 129 128 126 123 121 118 116 116 118 119 115 112 112 113 114 116 117 116 115 114 116 113 101 93 87 83 78
27 82 215 140 131 216 359 290 231 250 246 235 257 280 267 263 267 232 248 280 210 132 86 46 88 115 121 85 85 49 90 95 101 86 92 104 112 111 104 102 102 107 98 84 82 69 73 88 128 128 136 147 150 149 147 150 151 145 135 128 124 124 123 123 124 126 126 128 129 130 128 126 123 119 116 116 117 117 121 123 125 121 121 121 122 123 122 120 120 120 119 112 104 98 90 80 69
19 4 144 75 41 153 228 271 262 306 278 310 297 265 261 271 258 257 218 239 162 150 143 106 71 103 95 74 54 63 94 106 107 112 113 114 114 112 107 102 102 105 108 110 112 118 120 132 187 134 124 136 148 148 146 154 151 139 132 128 128 126 125 126 129 128 129 129 128 126 123 121 118 116 116 117 117 120 123 127 128 126 127 127 125 124 124 122 122 122 116 105 98 94 83 74 60
38 82 30 107 175 164 230 211 296 285 286 303 277 295 292 288 273 181 176 143 134 95 167 133 147 131 78 122 113 101 95 90 100 120 124 120 111 110 114 119 119 114 106 106 101 109 115 98 319 135 129 141 146 152 152 153 149 139 133 132 131 128 131 134 133 132 131 129 128 126 127 125 123 121 118 118 122 125 129 132 131 131 129 127 126 128 127 126 124 122 121 117 107 94 82 69 54
126 128 86 92 224 137 233 267 268 271 321 290 247 306 334 317 16 218 164 115 113 127 142 159 145 124 119 122 129 131 118 122 123 122 126 125 122 120 120 122 122 116 118 126 119 119 108 110 158 125 149 149 152 153 154 155 150 144 138 134 130 133 135 133 132 131 130 132 132 132 132 128 126 123 121 123 126 132 134 134 136 134 132 131 131 131 131 130 128 129 130 127 121 108 87 63 41
120 178 123 233 94 196 209 228 272 340 295 260 278 283 336 304 306 170 113 98 148 142 1 132 117 104 91 113 150 150 129 129 133 122 118 122 123 123 124 125 116 116 118 125 127 130 128 132 143 153 149 147 155 162 163 160 155 143 134 129 129 132 133 131 131 128 130 132 134 135 134 132 129 127 125 126 130 131 133 135 135 140 138 138 140 137 135 135 136 134 133 135 129 114 79 25 24
209 185 85 122 283 53 251 139 202 150 262 341 282 339 333 292 114 24 96 89 25 96 97 42 162 85 200 163 207 180 150 141 136 125 120 123 125 127 127 119 122 124 131 132 137 134 134 139 154 165 161 162 168 177 177 163 156 139 133 130 131 131 128 130 129 127 127 129 135 137 140 140 137 134 132 130 125 125 136 134 133 137 143 145 144 144 141 140 141 141 141 139 142 57 6 9 7
184 91 91 138 250 177 270 113 214 159 268 299 301 330 326 312 329 21 346 155 127 65 40 132 357 152 171 184 172 148 146 137 132 123 122 124 126 121 116 117 119 127 139 149 152 146 147 151 154 154 158 165 171 185 176 160 151 141 137 135 132 128 127 130 130 130 134 137 138 139 139 138 135 132 137 133 132 128 122 124 132 139 144 149 149 148 147 145 146 152 150 152 184 298 327 344 352
72 78 317 87 265 159 264 154 151 187 257 279 305 360 15 308 314 75 11 58 112 24 75 23 315 320 167 203 130 129 132 130 126 125 125 127 132 121 112 118 128 131 141 155 145 150 148 155 154 158 165 165 176 184 157 143 150 139 131 129 124 129 131 135 134 134 137 140 136 131 108 100 100 114 129 126 137 126 135 138 144 146 153 153 157 161 153 155 159 159 164 170 180 241 306 323 344
84 147 125 269 198 186 217 183 182 167 282 294 337 344 349 358 346 309 41 43 72 65 51 18 40 44 75 89 111 126 130 134 137 135 139 137 144 140 140 151 151 157 158 152 164 156 153 160 167 161 160 165 176 171 149 141 133 124 115 115 117 127 132 131 123 120 120 106 128 119 105 105 107 118 129 140 141 148 148 149 153 157 159 165 169 169 167 163 170 177 177 183 186 192 299 5 359
137 125 119 232 175 236 175 204 240 330 274 268 274 305 204 329 216 306 83 267 44 57 45 56 76 72 90 104 123 128 136 136 138 140 144 148 158 161 159 158 163 159 163 161 169 169 168 158 160 163 162 163 167 164 143 139 117 112 108 112 117 127 125 106 95 111 93 107 98 94 87 84 101 104 114 142 138 157 163 159 166 165 171 174 177 175 174 181 180 186 196 189 141 20 13 352 350
231 127 234 248 211 242 230 234 247 208 240 286 310 304 353 288 320 310 187 190 74 123 136 68 102 119 120 122 123 132 134 137 138 143 148 157 164 163 158 163 167 179 171 171 167 164 164 167 166 164 165 169 167 161 143 128 120 114 109 103 98 97 93 105 114 110 101 99 93 90 91 94 92 108 150 151 152 141 161 163 175 180 178 178 183 178 186 189 193 198 209 137 55 39 26 336 345
278 134 222 234 217 268 268 211 236 245 185 262 294 297 336 290 249 88 149 39 307 258 236 160 156 141 139 138 139 140 140 140 141 149 154 156 161 171 166 168 168 170 174 157 156 170 172 169 167 167 171 170 171 166 147 134 127 119 117 112 109 107 106 105 108 110 112 103 93 94 99 96 89 82 76 78 83 131 122 138 155 115 25 203 165 93 153 231 150 356 21 32 53 48 13 334 346
99 213 208 225 235 267 259 255 252 244 162 286 283 319 278 315 90 88 140 178 236 211 212 189 147 148 148 151 149 143 147 149 148 150 157 160 162 162 142 120 142 162 150 167 175 170 180 174 173 169 166 170 187 167 141 138 132 135 131 132 116 107 114 107 100 107 107 105 108 109 102 102 101 98 102 128 151 153 144 156 133 90 61 94 108 145 151 86 68 43 99 294 47 63 1 322 303
243 297 244 229 225 228 271 284 257 200 263 220 292 253 2 30 300 226 148 181 243 232 192 153 156 157 146 137 144 149 153 154 155 155 154 155 158 159 159 160 165 168 174 178 183 191 177 172 165 158 173 174 182 148 133 129 135 128 121 127 127 127 121 118 114 107 106 107 114 121 114 121 122 122 126 139 175 194 183 152 130 121 113 114 133 132 154 300 204 232 219 223 72 54 345 320 311
196 247 258 275 205 228 263 273 270 243 198 242 211 358 316 292 283 212 84 287 280 80 108 124 131 135 140 143 151 150 153 156 155 152 158 162 164 166 160 157 161 160 159 168 246 322 82 140 122 142 115 144 180 159 131 116 118 120 137 132 116 142 130 124 130 134 129 119 129 134 128 138 146 149 157 169 202 200 205 123 120 138 141 126 105 116 158 189 227 252 282 352 50 94 278 302 301
195 260 248 258 259 243 257 256 268 241 242 258 348 293 253 218 221 43 5 48 71 98 113 122 129 131 137 140 145 148 148 149 145 143 140 147 148 139 142 147 147 157 173 171 168 165 68 58 105 119 95 92 316 167 121 109 116 117 116 119 136 142 113 123 128 136 135 131 122 130 133 145 148 152 171 190 171 211 179 99 149 160 156 143 122 141 168 178 205 223 322 325 152 179 179 285 306
210 227 253 294 276 268 257 275 263 245 248 195 126 229 254 243 24 49 293 76 92 110 113 126 131 135 142 148 148 154 156 153 145 144 149 149 149 152 157 162 158 180 183 162 161 165 87 40 98 108 134 159 177 171 147 130 128 123 121 125 147 125 114 119 126 139 134 122 117 124 131 146 169 172 182 167 176 209 136 111 170 168 136 124 135 209 260 109 132 62 42 15 42 48 58 293 317
175 221 228 250 264 275 281 233 253 215 210 176 189 235 254 297 151 260 172 128 118 112 121 132 138 143 147 148 151 158 159 159 154 144 137 149 158 166 163 166 176 189 177 164 162 141 116 120 102 116 146 173 169 160 148 129 120 128 132 128 127 113 131 125 123 118 108 108 129 112 124 153 143 131 128 153 201 169 112 122 199 66 77 85 122 138 80 105 72 78 85 11 22 14 5 356 357
298 274 315 285 287 271 255 309 268 116 265 201 187 233 260 304 162 192 171 158 140 129 134 140 141 143 150 151 154 163 164 159 149 152 153 159 168 171 165 171 178 174 177 180 134 121 124 151 120 144 165 165 167 155 154 136 136 142 133 119 121 116 127 124 132 135 137 131 130 125 113 131 89 47 59 165 165 110 110 111 58 69 63 63 120 141 104 103 111 93 45 20 23 87 351 341 318
265 350 323 292 351 319 261 206 238 163 250 143 163 9 305 331 225 190 157 149 144 139 143 148 150 150 151 154 148 157 166 159 156 162 167 165 166 170 168 179 170 169 149 131 110 117 141 157 150 168 156 160 162 169 149 122 124 121 116 116 113 121 126 132 133 142 132 134 105 69 32 66 59 53 340 352 18 27 96 121 108 110 149 148 120 130 124 124 85 42 354 354 333 37 34 9 34
13 55 188 329 349 323 298 197 332 137 251 167 160 275 265 264 268 169 150 143 139 141 150 156 155 150 151 152 153 149 153 154 153 117 30 228 172 173 165 172 152 159 145 137 135 158 170 148 140 130 146 154 162 127 116 116 121 105 99 96 110 102 115 124 130 126 129 116 91 52 1 55 88 81 275 34 40 318 293 177 149 133 152 157 147 138 127 145 129 117 245 342 331 37 24 347 93
272 272 71 211 8 278 286 356 330 326 217 175 103 222 264 210 219 179 163 152 155 161 160 162 158 152 147 155 156 151 149 155 143 145 152 176 246 184 165 137 151 147 94 138 158 168 169 147 141 129 153 155 140 126 125 122 117 111 119 118 104 100 102 106 115 117 118 120 98 17 318 7 130 164 192 195 189 222 218 192 156 138 142 154 137 171 131 124 129 167 198 207 358 54 55 42 55
348 38 298 320 103 279 300 240 211 213 272 206 129 198 253 198 204 193 165 164 157 162 166 164 161 150 151 147 146 141 138 134 149 162 179 151 34 356 13 87 127 141 146 187 155 141 162 143 142 131 133 156 128 145 119 122 126 129 128 130 88 87 90 86 114 139 151 139 134 181 228 233 186 161 189 193 177 186 225 182 167 142 137 117 101 52 113 135 166 183 223 66 47 49 89 56 63
352 73 254 293 335 268 344 313 201 211 187 287 165 216 349 258 210 183 172 164 167 158 163 157 153 150 143 145 139 141 134 140 156 152 123 86 83 67 47 9 340 304 113 224 163 151 151 144 128 127 146 157 148 131 118 119 126 132 117 81 76 83 84 83 120 113 110 152 137 145 177 202 214 188 187 184 146 150 163 166 168 144 139 142 129 140 193 213 194 161 75 57 105 124 98 104 66
321 12 251 213 262 314 308 294 298 266 172 221 250 183 231 291 242 182 170 164 155 160 167 166 159 149 138 134 141 153 155 158 165 159 145 132 135 151 153 186 186 208 139 216 245 155 158 144 131 138 134 126 139 149 138 129 109 81 68 72 83 65 81 94 82 90 80 85 120 129 174 213 199 172 175 146 129 138 184 158 151 148 144 127 89 196 233 251 230 145 113 98 112 106 106 107 113
232 317 354 325 307 210 246 311 275 343 220 193 177 208 330 348 105 156 151 147 170 178 168 154 132 132 137 157 160 164 165 168 167 160 147 139 146 176 170 166 141 161 200 183 214 174 148 127 113 121 125 120 126 120 110 76 65 61 56 63 60 53 48 73 94 82 97 99 136 156 174 194 188 187 173 156 137 136 140 156 152 156 129 136 146 173 211 241 251 148 117 98 63 96 124 156 149
218 195 206 209 302 303 292 251 280 272 310 134 169 197 175 58 110 130 134 134 117 87 100 128 143 157 159 168 171 173 176 171 149 148 144 148 173 180 172 163 158 181 197 188 239 197 129 117 103 105 115 122 115 113 106 81 69 69 80 60 55 37 46 78 65 110 120 110 136 167 179 178 189 200 181 141 117 109 137 140 122 99 102 132 158 182 219 243 232 210 93 105 95 51 21 68 106
138 162 155 244 237 276 270 283 281 87 87 35 217 146 160 166 157 161 145 106 106 126 146 158 172 172 179 179 179 179 174 165 140 145 153 174 182 184 182 176 190 202 178 164 201 273 151 144 129 122 126 131 140 135 123 125 108 74 56 82 112 90 96 72 67 58 77 61 45 67 86 134 188 181 124 118 133 142 106 102 125 142 154 170 183 219 231 252 274 211 117 107 123 114 146 40 65
190 153 208 281 240 283 265 300 318 343 112 326 64 100 129 180 202 162 144 131 162 163 168 177 182 186 184 180 177 177 161 100 133 145 181 181 168 184 183 192 162 192 193 150 140 246 171 137 130 129 131 136 137 140 140 125 136 163 151 167 137 117 111 112 99 66 63 52 47 59 72 75 86 98 112 156 150 107 116 139 160 160 163 188 232 247 249 262 270 297 116 83 39 132 184 192 237
68 200 207 18 292 249 294 312 322 343 84 313 353 102 179 262 276 292 183 181 184 177 176 178 174 180 182 183 178 166 150 143 148 159 176 185 182 182 180 189 184 203 138 141 159 217 181 127 119 129 140 132 128 133 131 136 123 142 137 152 142 106 56 68 97 85 88 89 64 69 81 78 84 73 78 134 122 120 139 148 153 152 165 183 174 175 211 231 236 230 175 149 90 33 68 247 215
171 9 53 268 251 35 319 295 344 353 52 146 158 89 304 327 291 258 287 305 288 191 178 171 178 177 182 186 181 171 162 157 167 172 179 187 184 184 184 184 177 165 156 169 179 186 163 122 122 134 136 127 130 141 120 111 111 95 82 105 69 92 129 91 73 61 73 69 53 56 63 81 74 67 53 87 94 94 118 138 143 133 156 168 151 174 198 220 222 212 207 192 141 140 192 104 6
296 185 142 206 320 252 167 287 307 308 2 60 87 47 348 353 49 270 276 346 84 143 154 145 221 264 327 281 180 177 169 165 164 171 182 185 184 188 186 180 163 169 173 174 176 175 159 142 141 149 146 142 145 134 122 122 109 91 87 66 76 71 51 64 77 46 49 86 82 61 48 78 93 84 66 74 88 96 96 114 122 132 133 123 135 140 181 225 218 183 151 125 143 154 168 136 52
315 231 184 192 192 199 294 320 44 20 356 360 73 38 330 305 305 224 279 287 192 162 181 210 187 199 158 181 185 174 163 181 174 178 180 180 178 177 182 169 167 158 166 173 168 158 156 143 143 146 140 143 141 134 137 132 134 134 127 123 122 114 120 116 121 132 104 99 106 58 46 45 88 81 67 75 85 99 93 95 108 111 93 70 77 109 125 82 50 91 194 147 129 186 141 56 88
100 271 177 173 139 136 107 19 63 1 87 334 41 127 255 324 14 238 263 211 209 140 204 187 177 201 178 183 182 175 168 165 161 160 169 172 176 174 179 173 171 163 164 141 130 159 166 151 153 156 153 144 133 136 144 133 135 145 149 147 149 151 144 203 265 123 119 91 80 76 56 34 54 97 83 96 103 101 100 92 94 94 93 81 69 65 63 76 101 124 148 134 160 137 105 110 115
241 240 114 107 107 124 166 99 104 201 218 298 38 85 143 320 295 279 327 205 218 215 212 216 203 198 181 172 183 177 166 167 167 173 175 178 178 181 178 173 172 174 163 161 162 167 171 166 160 157 147 137 134 142 153 157 149 152 137 136 143 146 149 153 148 133 89 108 88 75 71 42 35 63 101 95 110 114 108 98 98 97 95 104 98 83 88 67 92 66 89 115 103 106 133 131 147
214 204 147 147 172 190 132 94 110 7 15 281 332 349 25 270 262 300 351 119 261 236 219 213 209 198 177 169 172 173 166 172 171 173 178 177 180 182 171 177 183 169 173 173 176 180 169 162 155 147 146 140 142 154 157 171 154 153 144 135 119 111 136 129 125 97 105 100 97 71 80 62 48 41 68 109 114 119 111 112 102 96 96 96 93 84 66 60 67 78 70 77 79 69 92 136 132
274 153 93 79 80 75 115 102 96 345 71 264 284 313 156 288 282 339 350 94 71 271 260 234 211 191 170 158 166 167 163 165 182 185 176 178 182 182 180 177 177 187 189 178 171 166 166 160 160 158 162 158 154 159 162 160 151 138 135 143 139 136 112 94 102 116 121 122 115 123 109 90 77 63 53 85 106 105 109 103 97 98 106 105 92 103 94 69 58 63 56 71 68 72 39 77 99
96 95 104 12 50 32 20 59 95 68 46 260 247 291 144 285 275 268 38 302 249 274 294 277 222 148 149 167 167 166 163 166 171 172 183 186 185 172 148 101 40 18 351 309 183 165 154 159 162 164 170 153 152 156 152 157 153 159 153 157 151 147 144 136 127 120 114 110 131 148 132 135 85 101 79 65 94 112 100 101 109 111 98 93 103 98 95 101 93 89 86 77 68 79 71 75 73
118 69 115 75 323 21 29 346 37 95 270 260 257 278 84 158 299 299 231 284 294 224 243 262 203 178 161 166 168 163 159 159 155 159 160 154 131 130 137 153 171 169 181 223 241 159 157 165 167 166 161 143 118 111 130 159 165 172 168 160 156 157 154 155 157 162 169 156 158 161 156 114 109 77 75 99 92 106 107 96 92 84 90 91 86 100 101 97 93 90 77 79 80 80 78 76 74
84 81 40 109 251 39 247 8 266 124 171 197 320 213 30 222 215 269 315 331 318 258 214 222 204 153 151 154 158 157 143 137 150 160 157 163 170 166 173 171 168 178 184 189 204 169 168 171 173 167 150 111 126 151 169 176 175 176 170 162 155 156 156 152 158 163 179 165 170 160 157 152 154 124 162 123 145 131 126 115 112 113 103 107 111 90 83 81 79 75 79 73 72 70 77 84 78
105 128 122 87 72 51 250 275 229 310 298 258 267 244 229 239 299 333 309 308 290 28 32 60 359 162 148 143 138 131 119 130 149 164 173 176 181 184 181 174 167 174 185 177 176 168 174 179 170 122 102 150 168 174 178 175 177 166 160 153 156 156 158 155 164 169 181 174 168 176 173 165 174 185 183 172 179 142 116 124 122 114 117 114 105 99 91 86 85 85 82 81 77 84 79 81 90
209 149 146 180 145 157 217 198 201 214 194 264 261 73 226 96 247 306 290 278 45 60 55 56 60 40 56 91 107 112 111 111 124 138 165 188 189 182 155 86 76 40 340 221 170 177 177 162 94 91 147 187 176 174 166 165 150 145 149 160 163 166 160 159 168 170 168 173 184 179 186 171 169 205 197 211 118 117 121 114 118 117 119 116 108 97 87 81 83 77 75 83 74 70 80 86 83
269 154 82 94 224 146 160 207 151 195 157 14 313 206 181 128 295 301 278 338 48 67 64 60 51 45 54 58 61 76 84 81 96 114 71 34 326 95 83 79 57 187 241 287 183 175 174 107 112 165 171 135 329 33 31 6 187 160 165 167 176 168 162 155 159 161 165 171 176 180 189 192 193 187 220 176 77 101 119 113 103 117 115 113 112 117 113 106 101 97 79 79 70 53 85 80 93
243 117 169 202 164 108 85 51 85 86 54 256 215 15 342 302 346 345 348 43 27 57 66 81 77 59 53 52 55 46 46 46 28 11 103 100 326 20 124 132 168 180 166 234 227 185 163 136 150 165 175 155 65 60 203 203 234 191 171 170 167 171 165 165 171 175 174 174 173 187 190 208 203 194 193 159 143 85 103 121 129 131 121 121 122 128 128 127 127 115 117 105 100 86 85 97 96
73 173 226 140 105 115 121 163 336 56 149 250 16 195 157 113 228 334 348 35 4 67 78 101 107 98 74 40 45 79 71 56 44 48 355 20 114 48 110 154 166 171 181 208 223 162 123 140 154 162 124 128 178 177 206 205 170 188 173 170 177 178 175 173 172 168 166 163 184 188 193 200 215 211 185 163 140 137 160 138 147 176 167 134 144 150 147 151 135 129 142 137 146 119 101 93 104
152 217 194 93 274 189 322 98 108 109 244 270 358 219 237 170 236 345 263 171 194 87 85 76 83 92 120 133 149 124 114 109 103 107 166 334 53 40 79 130 146 163 179 176 165 106 101 104 117 137 139 155 185 194 195 177 169 178 179 183 183 184 181 173 167 163 159 171 183 190 196 217 225 216 187 154 137 154 173 180 182 201 210 191 154 160 154 151 140 130 142 139 146 115 113 115 120
6 40 30 347 97 155 134 196 168 120 223 79 279 55 195 223 209 200 231 246 198 140 93 86 68 74 91 104 95 70 68 66 71 342 65 74 62 31 28 106 137 155 160 146 125 109 117 125 126 131 139 156 177 190 193 186 189 174 172 178 206 186 181 173 164 159 169 184 191 188 198 203 213 204 202 150 158 183 194 193 208 207 211 213 190 187 172 160 148 152 153 148 181 137 136 146 137
347 25 348 6 14 215 102 46 78 166 163 173 165 323 280 267 220 174 215 195 200 160 129 97 80 61 52 69 98 96 97 113 146 182 91 64 55 38 23 36 87 101 102 114 133 136 117 93 93 122 139 148 162 179 179 184 165 169 158 167 192 197 192 179 162 163 173 189 192 191 195 202 154 201 182 179 183 204 215 221 219 226 215 211 218 204 194 160 158 172 189 172 162 165 158 181 145
134 138 105 189 110 124 132 240 17 80 99 193 123 227 276 270 202 220 179 193 153 150 132 125 122 114 101 87 49 107 113 134 117 87 84 74 58 39 41 58 79 101 116 135 139 108 110 100 114 116 112 123 130 114 146 208 123 132 145 169 184 254 207 174 164 159 128 102 112 160 165 157 201 294 203 194 201 209 216 209 235 250 251 241 223 226 190 162 169 177 209 184 168 179 170 175 164